| time (UTC) | temp F | wind direction | speed MPH | gust MPH | rain 1hr in | rain 24hr in | rain mn in | humidity % | barometer mb |
| 20260510054023 | 54 | 283 | 3.0 | 3.0 | 0.00 | 0.00 | 0.00 | 91 | 1010.0 |
| 20260510053525 | 53 | 315 | 3.0 | 3.0 | 0.00 | 0.00 | 0.00 | 91 | 1010.0 |
| 20260510053029 | 53 | 258 | 3.0 | 3.0 | 0.00 | 0.00 | 0.00 | 92 | 1010.0 |
| 20260510052529 | 53 | 234 | 3.0 | 3.0 | 0.00 | 0.00 | 0.00 | 92 | 1010.0 |
| 20260510052010 | 53 | 126 | 3.0 | 3.0 | 0.00 | 0.00 | 0.00 | 92 | 1010.0 |
| 20260510051039 | 53 | 132 | 3.0 | 3.0 | 0.00 | 0.00 | 0.00 | 92 | 1010.0 |
| 20260510050124 | 53 | 251 | 5.0 | 5.0 | 0.00 | 0.00 | 0.00 | 92 | 1010.0 |
| 20260510045312 | 53 | 204 | 5.0 | 5.0 | 0.00 | 0.00 | 0.00 | 92 | 1009.0 |
| 20260510044541 | 53 | 307 | 3.0 | 3.0 | 0.00 | 0.00 | 0.00 | 92 | 1009.0 |
| 20260510043728 | 53 | 227 | 3.0 | 3.0 | 0.00 | 0.00 | 0.00 | 92 | 1009.0 |
| 20260510043105 | 53 | 298 | 4.0 | 4.0 | 0.00 | 0.00 | 0.00 | 92 | 1009.0 |
| 20260510042511 | 53 | 253 | 4.0 | 4.0 | 0.00 | 0.00 | 0.00 | 92 | 1009.0 |
| 20260510041944 | 53 | 324 | 3.0 | 3.0 | 0.00 | 0.00 | 0.00 | 91 | 1009.0 |
| 20260510041712 | 53 | 298 | 3.0 | 3.0 | 0.00 | 0.00 | 0.00 | 92 | 1009.0 |
| 20260510041211 | 53 | 241 | 3.0 | 3.0 | 0.00 | 0.00 | 0.00 | 92 | 1009.0 |
| 20260510040940 | 53 | 283 | 5.0 | 5.0 | 0.00 | 0.00 | 0.00 | 91 | 1009.0 |
| 20260510040518 | 53 | 330 | 3.0 | 3.0 | 0.00 | 0.00 | 0.00 | 92 | 1009.0 |
| 20260510040026 | 53 | 348 | 4.0 | 4.0 | 0.00 | 0.00 | 0.00 | 92 | 1009.0 |
| 20260510035531 | 53 | 292 | 7.0 | 8.0 | 0.00 | 0.00 | 0.00 | 91 | 1010.0 |
| 20260510034958 | 53 | 262 | 3.0 | 3.0 | 0.00 | 0.00 | 0.00 | 91 | 1010.0 |
| 20260510034429 | 53 | 283 | 3.0 | 3.0 | 0.00 | 0.00 | 0.00 | 91 | 1010.0 |
| 20260510033709 | 53 | 251 | 3.0 | 3.0 | 0.00 | 0.00 | 0.00 | 91 | 1010.0 |
| 20260510032852 | 53 | 258 | 3.0 | 3.0 | 0.00 | 0.00 | 0.00 | 91 | 1010.0 |
| 20260510032436 | 53 | 276 | 3.0 | 3.0 | 0.00 | 0.00 | 0.00 | 91 | 1010.0 |
| 20260510032137 | 53 | 195 | 3.0 | 3.0 | 0.00 | 0.00 | 0.00 | 91 | 1010.0 |
| 20260510030759 | 54 | 263 | 7.0 | 8.0 | 0.00 | 0.00 | 0.00 | 91 | 1010.0 |
| 20260510025558 | 54 | 198 | 3.0 | 3.0 | 0.00 | 0.00 | 0.00 | 90 | 1010.0 |
| 20260510023820 | 54 | 191 | 4.0 | 4.0 | 0.00 | 0.00 | 0.00 | 90 | 1010.0 |
| 20260510023236 | 54 | 279 | 5.0 | 5.0 | 0.00 | 0.00 | 0.00 | 90 | 1010.0 |
| 20260510022631 | 54 | 227 | 3.0 | 3.0 | 0.00 | 0.00 | 0.00 | 90 | 1010.0 |
| 20260510021818 | 54 | 246 | 4.0 | 4.0 | 0.00 | 0.00 | 0.00 | 90 | 1010.0 |
| 20260510020118 | 55 | 293 | 4.0 | 4.0 | 0.00 | 0.00 | 0.00 | 90 | 1010.0 |
| 20260510013648 | 55 | 324 | 3.0 | 3.0 | 0.00 | 0.00 | 0.00 | 88 | 1010.0 |
| 20260510013146 | 55 | 282 | 4.0 | 4.0 | 0.00 | 0.00 | 0.00 | 88 | 1011.0 |
| 20260510013004 | 55 | 252 | 3.0 | 3.0 | 0.00 | 0.00 | 0.00 | 88 | 1011.0 |
| 20260510012650 | 55 | 276 | 4.0 | 4.0 | 0.00 | 0.00 | 0.00 | 88 | 1011.0 |
| 20260510012151 | 56 | 95 | 7.0 | 7.0 | 0.00 | 0.00 | 0.00 | 87 | 1011.0 |
| 20260510011715 | 56 | 262 | 4.0 | 4.0 | 0.00 | 0.00 | 0.00 | 87 | 1011.0 |
| 20260510011659 | 56 | 338 | 4.0 | 4.0 | 0.00 | 0.00 | 0.00 | 87 | 1011.0 |
| 20260510011201 | 56 | 348 | 4.0 | 4.0 | 0.00 | 0.00 | 0.00 | 87 | 1011.0 |
| 20260510010655 | 56 | 310 | 3.0 | 3.0 | 0.00 | 0.00 | 0.00 | 86 | 1011.0 |
| 20260510010509 | 56 | 42 | 3.0 | 3.0 | 0.00 | 0.00 | 0.00 | 86 | 1011.0 |
| 20260510010153 | 56 | 306 | 3.0 | 3.0 | 0.00 | 0.00 | 0.00 | 86 | 1011.0 |
| 20260510005658 | 56 | 343 | 5.0 | 5.0 | 0.00 | 0.00 | 0.00 | 86 | 1011.0 |
| 20260510005200 | 56 | 263 | 3.0 | 3.0 | 0.00 | 0.00 | 0.00 | 86 | 1011.0 |
| 20260510004657 | 56 | 281 | 3.0 | 3.0 | 0.00 | 0.00 | 0.00 | 86 | 1011.0 |
| 20260510004057 | 56 | 354 | 3.0 | 3.0 | 0.00 | 0.00 | 0.00 | 86 | 1011.0 |
| 20260510003509 | 56 | 246 | 3.0 | 3.0 | 0.00 | 0.00 | 0.00 | 86 | 1011.0 |
| 20260510002909 | 56 | 221 | 3.0 | 3.0 | 0.00 | 0.00 | 0.00 | 87 | 1011.0 |
| 20260510002409 | 56 | 258 | 3.0 | 3.0 | 0.00 | 0.00 | 0.00 | 87 | 1012.0 |
| 20260510002232 | 56 | 253 | 4.0 | 4.0 | 0.00 | 0.00 | 0.00 | 87 | 1012.0 |
| 20260510001827 | 56 | 330 | 3.0 | 3.0 | 0.00 | 0.00 | 0.00 | 87 | 1012.0 |
| 20260510001330 | 56 | 292 | 4.0 | 4.0 | 0.00 | 0.00 | 0.00 | 87 | 1012.0 |
| 20260510000812 | 56 | 251 | 4.0 | 4.0 | 0.00 | 0.00 | 0.00 | 87 | 1012.0 |
| 20260510000253 | 56 | 228 | 5.0 | 5.0 | 0.00 | 0.00 | 0.00 | 87 | 1012.0 |
| 20260510000218 | 56 | 54 | 3.0 | 3.0 | 0.00 | 0.00 | 0.00 | 87 | 1012.0 |
| 20260509235719 | 56 | 221 | 4.0 | 4.0 | 0.00 | 0.00 | 0.00 | 87 | 1012.0 |
| 20260509235219 | 56 | 24 | 4.0 | 4.0 | 0.00 | 0.00 | 0.00 | 87 | 1012.0 |
| 20260509234715 | 56 | 132 | 5.0 | 5.0 | 0.00 | 0.00 | 0.00 | 87 | 1012.0 |
| 20260509234701 | 56 | 229 | 10.0 | 10.0 | 0.00 | 0.00 | 0.00 | 87 | 1012.0 |
| 20260509234159 | 56 | 306 | 6.0 | 7.0 | 0.00 | 0.00 | 0.00 | 88 | 1012.0 |
| 20260509233628 | 56 | 263 | 3.0 | 3.0 | 0.00 | 0.00 | 0.00 | 87 | 1012.0 |
| 20260509233134 | 56 | 298 | 6.0 | 6.0 | 0.00 | 0.00 | 0.00 | 87 | 1012.0 |
| 20260509232559 | 56 | 203 | 3.0 | 3.0 | 0.00 | 0.00 | 0.00 | 87 | 1012.0 |
| 20260509232015 | 56 | 307 | 4.0 | 4.0 | 0.00 | 0.00 | 0.00 | 87 | 1012.0 |
| 20260509231444 | 56 | 234 | 4.0 | 4.0 | 0.00 | 0.00 | 0.00 | 86 | 1012.0 |
| 20260509230952 | 57 | 296 | 7.0 | 7.0 | 0.00 | 0.00 | 0.00 | 86 | 1012.0 |
| 20260509230444 | 57 | 330 | 3.0 | 3.0 | 0.00 | 0.00 | 0.00 | 86 | 1012.0 |
| 20260509225946 | 57 | 332 | 3.0 | 3.0 | 0.00 | 0.00 | 0.00 | 85 | 1012.0 |
| 20260509225452 | 57 | 276 | 4.0 | 4.0 | 0.00 | 0.00 | 0.00 | 85 | 1012.0 |
| 20260509224956 | 57 | 201 | 3.0 | 3.0 | 0.00 | 0.00 | 0.00 | 85 | 1012.0 |
| 20260509224655 | 57 | 156 | 4.0 | 4.0 | 0.00 | 0.00 | 0.00 | 85 | 1012.0 |
| 20260509224503 | 57 | 294 | 3.0 | 3.0 | 0.00 | 0.00 | 0.00 | 86 | 1012.0 |
| 20260509223757 | 57 | 321 | 3.0 | 3.0 | 0.00 | 0.00 | 0.00 | 86 | 1012.0 |
| 20260509223241 | 56 | 282 | 4.0 | 4.0 | 0.00 | 0.00 | 0.00 | 86 | 1012.0 |
| 20260509222748 | 57 | 250 | 4.0 | 4.0 | 0.00 | 0.00 | 0.00 | 86 | 1012.0 |
| 20260509222517 | 57 | 332 | 4.0 | 4.0 | 0.00 | 0.00 | 0.00 | 86 | 1012.0 |
| 20260509222218 | 57 | 336 | 4.0 | 4.0 | 0.00 | 0.00 | 0.00 | 86 | 1012.0 |
| 20260509221714 | 56 | 164 | 4.0 | 4.0 | 0.00 | 0.00 | 0.00 | 86 | 1012.0 |
| 20260509221211 | 56 | 48 | 7.0 | 7.0 | 0.00 | 0.00 | 0.00 | 86 | 1012.0 |
| 20260509221143 | 56 | 217 | 5.0 | 5.0 | 0.00 | 0.00 | 0.00 | 86 | 1012.0 |
| 20260509220711 | 56 | 262 | 3.0 | 3.0 | 0.00 | 0.00 | 0.00 | 86 | 1012.0 |
| 20260509220205 | 56 | 343 | 4.0 | 4.0 | 0.00 | 0.00 | 0.00 | 87 | 1012.0 |
| 20260509215514 | 56 | 162 | 7.0 | 7.0 | 0.00 | 0.00 | 0.18 | 87 | 1012.0 |
| 20260509215021 | 56 | 205 | 3.0 | 3.0 | 0.00 | 0.00 | 0.18 | 87 | 1012.0 |
| 20260509214518 | 56 | 16 | 4.0 | 4.0 | 0.00 | 0.00 | 0.18 | 87 | 1012.0 |
| 20260509214421 | 56 | 42 | 3.0 | 3.0 | 0.00 | 0.00 | 0.18 | 87 | 1012.0 |
| 20260509214028 | 56 | 84 | 4.0 | 4.0 | 0.00 | 0.00 | 0.18 | 87 | 1012.0 |
| 20260509213523 | 56 | 293 | 8.0 | 9.0 | 0.00 | 0.00 | 0.18 | 87 | 1012.0 |
| 20260509213021 | 56 | 312 | 3.0 | 3.0 | 0.00 | 0.00 | 0.18 | 87 | 1013.0 |
| 20260509212842 | 56 | 230 | 6.0 | 6.0 | 0.00 | 0.00 | 0.18 | 87 | 1013.0 |
| 20260509212531 | 56 | 252 | 3.0 | 3.0 | 0.00 | 0.00 | 0.18 | 87 | 1013.0 |
| 20260509212028 | 57 | 216 | 4.0 | 4.0 | 0.00 | 0.00 | 0.18 | 88 | 1013.0 |
| 20260509211519 | 57 | 252 | 6.0 | 6.0 | 0.00 | 0.00 | 0.18 | 88 | 1013.0 |
| 20260509211006 | 57 | 330 | 3.0 | 3.0 | 0.00 | 0.00 | 0.18 | 88 | 1013.0 |
| 20260509210503 | 57 | 286 | 4.0 | 4.0 | 0.00 | 0.00 | 0.18 | 88 | 1013.0 |
| 20260509205942 | 57 | 350 | 4.0 | 4.0 | 0.00 | 0.00 | 0.18 | 87 | 1012.0 |
| 20260509205451 | 57 | 332 | 4.0 | 4.0 | 0.00 | 0.00 | 0.18 | 87 | 1012.0 |
| 20260509204929 | 57 | 210 | 3.0 | 3.0 | 0.00 | 0.00 | 0.18 | 88 | 1012.0 |
| 20260509204418 | 57 | 312 | 4.0 | 4.0 | 0.00 | 0.00 | 0.18 | 88 | 1012.0 |
| 20260509204117 | 57 | 95 | 3.0 | 3.0 | 0.00 | 0.00 | 0.18 | 88 | 1012.0 |
| 20260509203924 | 57 | 106 | 3.0 | 3.0 | 0.00 | 0.00 | 0.18 | 88 | 1012.0 |
| 20260509203432 | 57 | 298 | 7.0 | 8.0 | 0.00 | 0.00 | 0.18 | 88 | 1012.0 |
| 20260509203337 | 57 | 288 | 5.0 | 5.0 | 0.00 | 0.00 | 0.18 | 88 | 1012.0 |
| 20260509202215 | 57 | 305 | 3.0 | 3.0 | 0.00 | 0.00 | 0.18 | 88 | 1012.0 |
| 20260509201720 | 57 | 300 | 3.0 | 3.0 | 0.00 | 0.00 | 0.18 | 87 | 1012.0 |
| 20260509201228 | 57 | 130 | 4.0 | 4.0 | 0.00 | 0.00 | 0.18 | 87 | 1012.0 |
| 20260509200646 | 57 | 180 | 5.0 | 5.0 | 0.00 | 0.00 | 0.18 | 86 | 1012.0 |
| 20260509200041 | 57 | 191 | 3.0 | 3.0 | 0.00 | 0.00 | 0.18 | 85 | 1012.0 |
| 20260509195351 | 58 | 250 | 6.0 | 7.0 | 0.00 | 0.00 | 0.18 | 84 | 1012.0 |
| 20260509194819 | 57 | 48 | 3.0 | 3.0 | 0.00 | 0.00 | 0.18 | 84 | 1012.0 |
| 20260509194327 | 57 | 84 | 3.0 | 3.0 | 0.00 | 0.00 | 0.18 | 84 | 1012.0 |
| 20260509193832 | 57 | 168 | 4.0 | 4.0 | 0.00 | 0.00 | 0.18 | 85 | 1012.0 |
| 20260509193215 | 57 | 205 | 3.0 | 3.0 | 0.00 | 0.00 | 0.18 | 85 | 1012.0 |
| 20260509192336 | 57 | 342 | 4.0 | 4.0 | 0.00 | 0.00 | 0.18 | 85 | 1011.0 |
| 20260509191517 | 58 | 72 | 4.0 | 4.0 | 0.00 | 0.00 | 0.18 | 85 | 1011.0 |
| 20260509190909 | 58 | 150 | 4.0 | 4.0 | 0.00 | 0.00 | 0.18 | 85 | 1011.0 |
| 20260509190017 | 58 | 78 | 4.0 | 4.0 | 0.00 | 0.00 | 0.18 | 85 | 1011.0 |
| 20260509185523 | 58 | 226 | 3.0 | 3.0 | 0.00 | 0.00 | 0.18 | 84 | 1011.0 |
| 20260509185004 | 58 | 114 | 3.0 | 3.0 | 0.00 | 0.00 | 0.18 | 84 | 1011.0 |
| 20260509184512 | 58 | 153 | 3.0 | 3.0 | 0.00 | 0.00 | 0.18 | 85 | 1011.0 |
| 20260509183952 | 58 | 150 | 7.0 | 7.0 | 0.00 | 0.00 | 0.18 | 87 | 1011.0 |
| 20260509183420 | 58 | 84 | 5.0 | 5.0 | 0.00 | 0.00 | 0.18 | 87 | 1011.0 |
| 20260509182917 | 59 | 114 | 3.0 | 3.0 | 0.00 | 0.00 | 0.18 | 86 | 1011.0 |
| 20260509182420 | 60 | 186 | 3.0 | 3.0 | 0.04 | 0.00 | 0.18 | 85 | 1011.0 |
| 20260509181856 | 60 | 227 | 4.0 | 4.0 | 0.03 | 0.00 | 0.17 | 83 | 1011.0 |
| 20260509181355 | 62 | 210 | 4.0 | 4.0 | 0.00 | 0.00 | 0.16 | 79 | 1011.0 |
| 20260509180853 | 63 | 168 | 3.0 | 3.0 | 0.00 | 0.00 | 0.15 | 75 | 1011.0 |
| 20260509180355 | 64 | 82 | 8.0 | 9.0 | 0.00 | 0.00 | 0.15 | 74 | 1011.0 |
| 20260509175845 | 64 | 294 | 3.0 | 3.0 | 0.00 | 0.00 | 0.15 | 72 | 1011.0 |
| 20260509175326 | 65 | 295 | 6.0 | 6.0 | 0.00 | 0.00 | 0.15 | 72 | 1011.0 |
| 20260509174702 | 65 | 6 | 3.0 | 3.0 | 0.00 | 0.00 | 0.15 | 70 | 1011.0 |
| 20260509174050 | 65 | 330 | 4.0 | 4.0 | 0.00 | 0.00 | 0.15 | 68 | 1011.0 |
| 20260509173600 | 66 | 24 | 6.0 | 6.0 | 0.00 | 0.00 | 0.15 | 66 | 1011.0 |
| 20260509173029 | 66 | 170 | 3.0 | 3.0 | 0.00 | 0.00 | 0.15 | 66 | 1011.0 |
| 20260509172533 | 66 | 60 | 3.0 | 3.0 | 0.00 | 0.00 | 0.15 | 66 | 1011.0 |
| 20260509172040 | 67 | 289 | 7.0 | 7.0 | 0.00 | 0.00 | 0.15 | 65 | 1011.0 |
| 20260509171533 | 67 | 138 | 4.0 | 4.0 | 0.00 | 0.00 | 0.15 | 64 | 1011.0 |
| 20260509171037 | 67 | 150 | 7.0 | 8.0 | 0.00 | 0.00 | 0.15 | 64 | 1011.0 |
| 20260509170536 | 68 | 89 | 4.0 | 4.0 | 0.00 | 0.00 | 0.15 | 64 | 1011.0 |
| 20260509165955 | 68 | 186 | 3.0 | 3.0 | 0.00 | 0.00 | 0.15 | 63 | 1011.0 |
| 20260509165455 | 69 | 313 | 4.0 | 4.0 | 0.00 | 0.00 | 0.15 | 62 | 1011.0 |
| 20260509165004 | 70 | 238 | 4.0 | 4.0 | 0.00 | 0.00 | 0.15 | 60 | 1011.0 |
| 20260509164513 | 71 | 292 | 3.0 | 3.0 | 0.00 | 0.00 | 0.15 | 59 | 1011.0 |
| 20260509164021 | 71 | 270 | 3.0 | 3.0 | 0.00 | 0.00 | 0.15 | 57 | 1011.0 |
| 20260509163433 | 71 | 270 | 4.0 | 4.0 | 0.00 | 0.00 | 0.15 | 56 | 1011.0 |
| 20260509162206 | 71 | 232 | 3.0 | 3.0 | 0.00 | 0.00 | 0.15 | 55 | 1011.0 |
| 20260509161715 | 72 | 282 | 4.0 | 4.0 | 0.00 | 0.00 | 0.15 | 54 | 1011.0 |
| 20260509161217 | 72 | 252 | 4.0 | 4.0 | 0.00 | 0.00 | 0.15 | 53 | 1011.0 |
| 20260509160722 | 73 | 257 | 3.0 | 3.0 | 0.00 | 0.00 | 0.15 | 53 | 1011.0 |
| 20260509160230 | 73 | 150 | 3.0 | 3.0 | 0.00 | 0.00 | 0.15 | 52 | 1011.0 |
| 20260509155629 | 72 | 286 | 4.0 | 4.0 | 0.00 | 0.00 | 0.15 | 54 | 1011.0 |
| 20260509155133 | 72 | 348 | 5.0 | 5.0 | 0.00 | 0.00 | 0.15 | 55 | 1011.0 |
| 20260509154542 | 72 | 349 | 3.0 | 3.0 | 0.00 | 0.00 | 0.15 | 55 | 1011.0 |
| 20260509153656 | 73 | 208 | 3.0 | 3.0 | 0.00 | 0.00 | 0.15 | 52 | 1011.0 |
| 20260509153100 | 71 | 318 | 4.0 | 4.0 | 0.00 | 0.00 | 0.15 | 54 | 1011.0 |
| 20260509152445 | 71 | 296 | 4.0 | 4.0 | 0.00 | 0.00 | 0.15 | 55 | 1011.0 |
| 20260509151901 | 71 | 265 | 3.0 | 3.0 | 0.00 | 0.00 | 0.15 | 54 | 1011.0 |
| 20260509151401 | 72 | 4 | 4.0 | 4.0 | 0.00 | 0.00 | 0.15 | 53 | 1011.0 |
| 20260509150820 | 73 | 22 | 7.0 | 8.0 | 0.00 | 0.00 | 0.15 | 51 | 1011.0 |
| 20260509150304 | 74 | 59 | 4.0 | 4.0 | 0.00 | 0.00 | 0.15 | 51 | 1011.0 |
| 20260509145802 | 73 | 288 | 4.0 | 4.0 | 0.00 | 0.00 | 0.15 | 50 | 1011.0 |
| 20260509145312 | 74 | 294 | 3.0 | 3.0 | 0.00 | 0.00 | 0.15 | 50 | 1011.0 |
| 20260509144819 | 75 | 335 | 5.0 | 5.0 | 0.00 | 0.00 | 0.15 | 51 | 1011.0 |
| 20260509144317 | 74 | 41 | 3.0 | 3.0 | 0.00 | 0.00 | 0.15 | 52 | 1011.0 |
| 20260509143814 | 74 | 48 | 7.0 | 7.0 | 0.00 | 0.00 | 0.15 | 50 | 1011.0 |
| 20260509143314 | 74 | 96 | 4.0 | 4.0 | 0.00 | 0.00 | 0.15 | 50 | 1011.0 |
| 20260509142811 | 73 | 240 | 4.0 | 4.0 | 0.00 | 0.00 | 0.15 | 51 | 1011.0 |
| 20260509142311 | 73 | 25 | 7.0 | 7.0 | 0.00 | 0.00 | 0.15 | 49 | 1011.0 |
| 20260509141817 | 74 | 354 | 6.0 | 7.0 | 0.00 | 0.00 | 0.15 | 49 | 1011.0 |
| 20260509141328 | 74 | 326 | 9.0 | 9.0 | 0.00 | 0.00 | 0.15 | 50 | 1011.0 |
| 20260509140830 | 73 | 282 | 3.0 | 3.0 | 0.00 | 0.00 | 0.15 | 51 | 1011.0 |
| 20260509140329 | 73 | 216 | 4.0 | 4.0 | 0.00 | 0.00 | 0.15 | 52 | 1011.0 |
| 20260509135833 | 72 | 226 | 4.0 | 4.0 | 0.00 | 0.00 | 0.15 | 53 | 1011.0 |
| 20260509135334 | 71 | 240 | 5.0 | 5.0 | 0.00 | 0.00 | 0.15 | 52 | 1012.0 |
| 20260509134837 | 71 | 292 | 4.0 | 4.0 | 0.00 | 0.00 | 0.15 | 54 | 1012.0 |
| 20260509134334 | 72 | 102 | 5.0 | 5.0 | 0.00 | 0.00 | 0.15 | 53 | 1012.0 |
| 20260509133843 | 73 | 340 | 5.0 | 5.0 | 0.00 | 0.00 | 0.15 | 52 | 1012.0 |
| 20260509133350 | 73 | 306 | 8.0 | 8.0 | 0.00 | 0.00 | 0.15 | 51 | 1012.0 |
| 20260509132900 | 72 | 59 | 3.0 | 3.0 | 0.00 | 0.00 | 0.15 | 55 | 1012.0 |
| 20260509132359 | 71 | 294 | 6.0 | 7.0 | 0.00 | 0.00 | 0.15 | 56 | 1012.0 |
| 20260509131909 | 71 | 358 | 11.0 | 12.0 | 0.00 | 0.00 | 0.15 | 57 | 1012.0 |
| 20260509131415 | 71 | 138 | 8.0 | 8.0 | 0.00 | 0.00 | 0.15 | 55 | 1012.0 |
| 20260509130924 | 71 | 12 | 6.0 | 7.0 | 0.00 | 0.00 | 0.15 | 55 | 1012.0 |
| 20260509130428 | 71 | 354 | 7.0 | 7.0 | 0.00 | 0.00 | 0.15 | 55 | 1012.0 |
| 20260509125923 | 71 | 166 | 9.0 | 10.0 | 0.00 | 0.00 | 0.15 | 54 | 1012.0 |
| 20260509125420 | 71 | 61 | 4.0 | 4.0 | 0.00 | 0.00 | 0.15 | 53 | 1012.0 |
| 20260509124927 | 70 | 283 | 6.0 | 6.0 | 0.00 | 0.00 | 0.15 | 55 | 1012.0 |
| 20260509124425 | 70 | 348 | 6.0 | 7.0 | 0.00 | 0.00 | 0.15 | 55 | 1012.0 |
| 20260509123934 | 70 | 310 | 6.0 | 7.0 | 0.00 | 0.00 | 0.15 | 55 | 1012.0 |
| 20260509123434 | 69 | 310 | 8.0 | 8.0 | 0.00 | 0.00 | 0.15 | 56 | 1012.0 |
| 20260509122933 | 69 | 154 | 4.0 | 4.0 | 0.00 | 0.00 | 0.15 | 59 | 1012.0 |
| 20260509122432 | 70 | 265 | 6.0 | 6.0 | 0.00 | 0.00 | 0.15 | 58 | 1012.0 |
| 20260509122215 | 70 | 318 | 7.0 | 8.0 | 0.00 | 0.00 | 0.15 | 59 | 1012.0 |
| 20260509121725 | 68 | 66 | 4.0 | 4.0 | 0.00 | 0.00 | 0.15 | 59 | 1012.0 |
| 20260509121225 | 67 | 300 | 4.0 | 4.0 | 0.00 | 0.00 | 0.15 | 61 | 1012.0 |
| 20260509120733 | 66 | 348 | 5.0 | 5.0 | 0.00 | 0.00 | 0.15 | 61 | 1012.0 |
| 20260509120238 | 67 | 239 | 8.0 | 9.0 | 0.00 | 0.00 | 0.15 | 60 | 1012.0 |
| 20260509115923 | 67 | 227 | 7.0 | 8.0 | 0.00 | 0.00 | 0.15 | 61 | 1012.0 |
| 20260509115656 | 66 | 329 | 3.0 | 3.0 | 0.00 | 0.00 | 0.15 | 63 | 1012.0 |
| 20260509115203 | 67 | 305 | 4.0 | 4.0 | 0.00 | 0.00 | 0.15 | 62 | 1012.0 |
| 20260509114700 | 67 | 354 | 3.0 | 3.0 | 0.00 | 0.00 | 0.15 | 62 | 1012.0 |
| 20260509114107 | 66 | 326 | 7.0 | 7.0 | 0.00 | 0.00 | 0.15 | 63 | 1012.0 |
| 20260509113614 | 66 | 328 | 8.0 | 9.0 | 0.00 | 0.00 | 0.15 | 61 | 1012.0 |
| 20260509113123 | 66 | 354 | 4.0 | 4.0 | 0.00 | 0.00 | 0.15 | 63 | 1012.0 |
| 20260509112905 | 65 | 32 | 3.0 | 3.0 | 0.00 | 0.00 | 0.15 | 65 | 1012.0 |
| 20260509112556 | 65 | 288 | 5.0 | 5.0 | 0.00 | 0.00 | 0.15 | 64 | 1012.0 |
| 20260509112100 | 66 | 276 | 9.0 | 9.0 | 0.00 | 0.00 | 0.15 | 64 | 1012.0 |
| 20260509111605 | 66 | 276 | 9.0 | 10.0 | 0.00 | 0.00 | 0.15 | 64 | 1013.0 |
| 20260509111110 | 65 | 262 | 9.0 | 10.0 | 0.00 | 0.00 | 0.15 | 65 | 1013.0 |
| 20260509110602 | 64 | 239 | 5.0 | 5.0 | 0.00 | 0.00 | 0.15 | 67 | 1013.0 |
| 20260509110052 | 64 | 308 | 7.0 | 8.0 | 0.00 | 0.00 | 0.15 | 66 | 1013.0 |
| 20260509105600 | 64 | 301 | 3.0 | 3.0 | 0.00 | 0.00 | 0.15 | 67 | 1013.0 |
| 20260509105107 | 63 | 296 | 4.0 | 4.0 | 0.00 | 0.00 | 0.15 | 68 | 1013.0 |
| 20260509104615 | 63 | 329 | 6.0 | 6.0 | 0.00 | 0.00 | 0.15 | 69 | 1013.0 |
| 20260509104208 | 63 | 12 | 4.0 | 4.0 | 0.00 | 0.00 | 0.15 | 68 | 1013.0 |
| 20260509104114 | 63 | 312 | 6.0 | 6.0 | 0.00 | 0.00 | 0.15 | 68 | 1013.0 |
| 20260509103618 | 62 | 312 | 3.0 | 3.0 | 0.00 | 0.00 | 0.15 | 70 | 1013.0 |
| 20260509103117 | 62 | 317 | 5.0 | 5.0 | 0.00 | 0.00 | 0.15 | 70 | 1013.0 |
| 20260509102622 | 63 | 195 | 4.0 | 4.0 | 0.00 | 0.00 | 0.15 | 71 | 1013.0 |
| 20260509102131 | 63 | 234 | 9.0 | 9.0 | 0.00 | 0.00 | 0.15 | 69 | 1013.0 |
| 20260509101637 | 62 | 9 | 5.0 | 5.0 | 0.00 | 0.00 | 0.15 | 70 | 1013.0 |
| 20260509101137 | 61 | 173 | 12.0 | 13.0 | 0.00 | 0.00 | 0.15 | 72 | 1013.0 |
| 20260509100620 | 60 | 337 | 3.0 | 3.0 | 0.00 | 0.00 | 0.15 | 72 | 1013.0 |
| 20260509100049 | 60 | 306 | 6.0 | 6.0 | 0.00 | 0.00 | 0.15 | 73 | 1013.0 |
| 20260509095553 | 59 | 313 | 4.0 | 4.0 | 0.00 | 0.00 | 0.15 | 73 | 1013.0 |
| 20260509095053 | 59 | 299 | 4.0 | 4.0 | 0.00 | 0.00 | 0.15 | 74 | 1013.0 |
| 20260509094558 | 58 | 301 | 7.0 | 7.0 | 0.00 | 0.00 | 0.15 | 76 | 1013.0 |
| 20260509094503 | 58 | 95 | 7.0 | 8.0 | 0.00 | 0.00 | 0.15 | 76 | 1013.0 |
| 20260509094108 | 58 | 126 | 5.0 | 5.0 | 0.00 | 0.00 | 0.15 | 77 | 1013.0 |
| 20260509093929 | 58 | 278 | 5.0 | 5.0 | 0.00 | 0.00 | 0.15 | 78 | 1013.0 |
| 20260509093614 | 58 | 258 | 6.0 | 6.0 | 0.00 | 0.00 | 0.15 | 78 | 1013.0 |
| 20260509093110 | 58 | 293 | 6.0 | 6.0 | 0.00 | 0.00 | 0.15 | 78 | 1013.0 |
| 20260509092616 | 58 | 324 | 7.0 | 8.0 | 0.00 | 0.00 | 0.15 | 80 | 1013.0 |
| 20260509092115 | 57 | 326 | 4.0 | 4.0 | 0.00 | 0.00 | 0.15 | 80 | 1013.0 |
| 20260509091614 | 57 | 239 | 4.0 | 4.0 | 0.00 | 0.00 | 0.15 | 79 | 1013.0 |
| 20260509091051 | 58 | 252 | 4.0 | 4.0 | 0.00 | 0.00 | 0.15 | 80 | 1013.0 |
| 20260509090553 | 58 | 281 | 4.0 | 4.0 | 0.00 | 0.00 | 0.15 | 79 | 1013.0 |
| 20260509090047 | 58 | 339 | 3.0 | 3.0 | 0.00 | 0.00 | 0.15 | 80 | 1013.0 |
| 20260509085545 | 58 | 299 | 5.0 | 5.0 | 0.00 | 0.00 | 0.15 | 80 | 1013.0 |
| 20260509085042 | 56 | 275 | 4.0 | 4.0 | 0.00 | 0.00 | 0.15 | 82 | 1013.0 |
| 20260509084541 | 56 | 290 | 4.0 | 4.0 | 0.00 | 0.00 | 0.15 | 83 | 1013.0 |
| 20260509084236 | 56 | 270 | 5.0 | 5.0 | 0.00 | 0.00 | 0.15 | 83 | 1013.0 |
| 20260509084045 | 56 | 156 | 5.0 | 5.0 | 0.00 | 0.00 | 0.15 | 82 | 1013.0 |
| 20260509083553 | 55 | 336 | 4.0 | 4.0 | 0.00 | 0.00 | 0.15 | 85 | 1013.0 |
| 20260509083050 | 54 | 293 | 4.0 | 4.0 | 0.00 | 0.00 | 0.15 | 85 | 1013.0 |
| 20260509082442 | 54 | 288 | 7.0 | 8.0 | 0.00 | 0.00 | 0.15 | 85 | 1013.0 |
| 20260509081946 | 54 | 168 | 7.0 | 7.0 | 0.00 | 0.00 | 0.15 | 86 | 1013.0 |
| 20260509081454 | 54 | 354 | 4.0 | 4.0 | 0.00 | 0.00 | 0.15 | 87 | 1013.0 |
| 20260509081001 | 53 | 192 | 4.0 | 4.0 | 0.00 | 0.00 | 0.15 | 88 | 1013.0 |
| 20260509080436 | 53 | 153 | 9.0 | 9.0 | 0.00 | 0.00 | 0.15 | 88 | 1013.0 |
| 20260509075938 | 53 | 281 | 4.0 | 4.0 | 0.00 | 0.00 | 0.15 | 89 | 1014.0 |
| 20260509075814 | 53 | 18 | 4.0 | 4.0 | 0.00 | 0.00 | 0.15 | 89 | 1014.0 |
| 20260509075323 | 53 | 276 | 6.0 | 6.0 | 0.02 | 0.00 | 0.15 | 88 | 1014.0 |
| 20260509075104 | 53 | 285 | 5.0 | 5.0 | 0.00 | 0.00 | 0.14 | 88 | 1014.0 |
| 20260509074830 | 54 | 326 | 4.0 | 4.0 | 0.00 | 0.00 | 0.14 | 88 | 1014.0 |
| 20260509074340 | 53 | 270 | 4.0 | 4.0 | 0.00 | 0.00 | 0.14 | 88 | 1014.0 |
| 20260509073837 | 53 | 42 | 3.0 | 3.0 | 0.01 | 0.00 | 0.14 | 87 | 1014.0 |
| 20260509073256 | 53 | 227 | 3.0 | 3.0 | 0.00 | 0.00 | 0.13 | 88 | 1014.0 |
| 20260509072804 | 53 | 242 | 4.0 | 4.0 | 0.00 | 0.00 | 0.13 | 88 | 1014.0 |
| 20260509072306 | 53 | 348 | 3.0 | 3.0 | 0.02 | 0.00 | 0.13 | 87 | 1014.0 |
| 20260509071804 | 53 | 299 | 4.0 | 4.0 | 0.16 | 0.00 | 0.13 | 87 | 1014.0 |
| 20260509071306 | 53 | 272 | 3.0 | 3.0 | 0.35 | 0.00 | 0.10 | 86 | 1014.0 |
| 20260509070619 | 53 | 10 | 3.0 | 3.0 | 0.07 | 0.00 | 0.06 | 86 | 1014.0 |
| 20260509070040 | 54 | 6 | 4.0 | 4.0 | 0.02 | 0.00 | 0.04 | 85 | 1013.0 |
| 20260509065422 | 54 | 278 | 4.0 | 4.0 | 0.05 | 0.00 | 0.03 | 84 | 1013.0 |
| 20260509064823 | 55 | 326 | 3.0 | 3.0 | 0.05 | 0.00 | 0.02 | 82 | 1013.0 |
| 20260509064321 | 55 | 336 | 3.0 | 3.0 | 0.00 | 0.00 | 0.01 | 81 | 1013.0 |
| 20260509062531 | 55 | 236 | 3.0 | 3.0 | 0.00 | 0.00 | 0.00 | 77 | 1013.0 |